Location: Central Falls
(41.8900°N, 71.3929°W)
Time: 03:19:50
(UTC+00:00)

Vanguard 2 Rocket - Pass Details

Date: 08 December 2023
Orbit: 555 x 3309 km, 32.9° (Epoch: 01 March)

Event Time Altitude Azimuth Distance (km) Brightness Sun altitude
Rises 00:15:51 0° 280° (W) 7,260 12.5 -33.0°
Reaches altitude 10° 00:21:16 10° 274° (W) 6,268 12.0 -34.0°
Maximum altitude 00:38:16 38° 216° (SW) 3,915 10.2 -37.1°
Enters shadow 00:48:33 18° 163° (SSE) 4,361 10.1 -39.0°
Drops below altitude 10° 00:51:07 10° 155° (SSE) 4,750 - -39.5°
Sets 00:54:35 0° 147° (SSE) 5,401 - -40.2°
